[[{"header":{"parameterUnit":"m.s-1","parameterCategory":1,"la1":30.2991,"la2":30.254,"lo1":-89.0895,"lo2":-89.0444,"dy":0.0017,"dx":0.0017,"nx":28,"ny":28,"refTime":"2025-02-10T09:00:00:Z","depth":0,"parameterNumber":2,"parameterNumberName":"U-component_of_WINDS"},"data":[0,0,0,0,0,0,0,0,0,0,0,0,0,0,0,0,0,0,0,0,0,0,0,0,0,0,0,0,0,0,0,0,0,0,0,0,0,0,0,0,0,0,0,0,0,0,0,0,0,0,0,0,0,0,0,0,0,0,-1.8091,-1.8091,0,-1.8064,-1.8064,-1.8063,-1.8032,-1.8031,-1.8031,-1.803,-1.8001,-1.8,-1.8,0,0,0,0,0,0,0,0,0,0,0,0,0,-1.8115,-1.8115,-1.8091,-1.8091,-1.8091,-1.8064,-1.8064,-1.8063,-1.8032,-1.8031,-1.8031,-1.803,-1.8001,-1.8,-1.8,0,0,0,0,0,0,0,0,0,0,0,0,0,-1.8098,-1.8115,-1.8092,-1.8072,-1.807,-1.8064,-1.8064,-1.8063,-1.8032,-1.8031,-1.803,-1.803,-1.8001,-1.8,-1.8,-1.8011,0,0,-1.7998,-1.7998,0,0,0,0,0,0,0,0,-1.8099,-1.8097,-1.8075,-1.8073,-1.8071,-1.8051,-1.8061,-1.8046,-1.8032,-1.8046,-1.803,-1.8029,-1.8018,-1.8016,-1.8012,-1.8009,-1.8008,-1.7998,-1.7998,-1.7998,-1.7998,0,0,0,0,0,0,0,-1.81,-1.8098,-1.808,-1.8075,-1.8072,-1.8064,-1.8061,-1.8058,-1.8036,-1.8045,-1.8043,-1.804,-1.8016,-1.8013,-1.8011,-1.8008,-1.7998,-1.7998,-1.7998,-1.7997,-1.8013,-1.8013,0,0,0,0,0,0,-1.8105,-1.8099,-1.8081,-1.808,-1.8084,-1.8064,-1.806,-1.8058,-1.8036,-1.8032,-1.804,-1.8038,-1.8014,-1.8012,-1.801,-1.8022,-1.7998,-1.7997,-1.7997,-1.8012,-1.8013,-1.8014,0,0,0,0,0,0,-1.8105,-1.8103,-1.8082,-1.8089,-1.8086,-1.8064,-1.8062,-1.8058,-1.8054,-1.8033,-1.8029,-1.8041,-1.8013,-1.8011,-1.8011,-1.8021,-1.7997,-1.7997,-1.8011,-1.8012,-1.8013,-1.8046,0,0,0,0,0,0,-1.8106,-1.8104,-1.8108,-1.8089,-1.8085,-1.8085,-1.8062,-1.8058,-1.8053,-1.805,-1.8032,-1.8028,-1.8013,-1.8012,-1.8011,-1.8019,-1.7996,-1.801,-1.8012,-1.8013,-1.8044,-1.8048,-1.8051,0,0,0,0,0,-1.8107,-1.8118,-1.8109,-1.8107,-1.809,-1.8085,-1.8083,-1.8065,-1.8054,-1.8058,-1.8045,-1.8029,-1.8019,-1.8012,-1.801,-1.8019,-1.801,-1.8011,-1.8013,-1.8042,-1.8047,-1.8051,0,0,0,0,0,0,-1.8138,-1.8115,-1.8104,-1.811,-1.81,-1.808,-1.8085,-1.8071,-1.8063,-1.8061,-1.8038,-1.8035,-1.8038,-1.8028,-1.8021,-1.8029,-1.8012,-1.8014,-1.8035,-1.804,-1.8043,-1.8046,-1.7996,0,0,0,0,0,-1.8146,-1.8144,-1.8123,-1.813,-1.8126,-1.8106,-1.8103,-1.809,-1.8079,-1.8074,-1.806,-1.805,-1.8044,-1.8041,-1.8035,-1.8042,-1.8037,-1.8047,-1.805,-1.8054,-1.8055,-1.8059,-1.8063,-1.8019,-1.8019,-1.8019,0,0,-1.8161,-1.8148,-1.8149,-1.8136,-1.8127,-1.8125,-1.8103,-1.8102,-1.81,-1.8074,-1.8074,-1.8063,-1.8049,-1.8053,-1.8054,-1.8045,-1.8066,-1.8056,-1.8058,-1.8058,-1.8061,-1.8065,-1.8069,-1.802,-1.802,-1.802,0,0,-1.8189,-1.8179,-1.8183,-1.8175,-1.8161,-1.8148,-1.8149,-1.8131,-1.8123,-1.8123,-1.8103,-1.81,-1.8091,-1.8083,-1.8077,-1.8101,-1.8086,-1.8099,-1.8119,-1.8123,-1.8126,-1.8129,-1.8139,-1.8142,-1.8101,-1.8101,-1.8101,0,-1.821,-1.8207,-1.8187,-1.8188,-1.8183,-1.8159,-1.8164,-1.8156,-1.8141,-1.8138,-1.8128,-1.8116,-1.8105,-1.8107,-1.8113,-1.8109,-1.8109,-1.8102,-1.8127,-1.813,-1.8133,-1.8141,-1.8145,-1.8102,-1.8102,-1.8102,-1.8102,0,-1.8234,-1.8232,-1.8237,-1.8224,-1.8219,-1.8222,-1.8202,-1.82,-1.8187,-1.8175,-1.8174,-1.816,-1.8151,-1.815,-1.8137,-1.815,-1.8145,-1.8132,-1.8115,-1.8139,-1.8147,-1.815,-1.8105,-1.8104,-1.8104,-1.8103,0,0,-1.8282,-1.8257,-1.826,-1.8253,-1.8236,-1.8234,-1.8235,-1.8227,-1.8225,-1.8215,-1.8216,-1.8209,-1.8196,-1.819,-1.8175,-1.8178,-1.8199,-1.8164,-1.8164,-1.8172,-1.8213,-1.8224,-1.8229,-1.8189,-1.8189,-1.819,-1.8215,0,-1.8307,-1.8309,-1.8291,-1.8297,-1.8295,-1.8272,-1.8273,-1.8262,-1.825,-1.8247,-1.8233,-1.8229,-1.8212,-1.8208,-1.821,-1.8196,-1.8207,-1.8194,-1.8189,-1.819,-1.8195,-1.8233,-1.8244,-1.8269,-1.8217,-1.8218,-1.8218,0,-1.8338,-1.833,-1.8336,-1.8319,-1.8318,-1.8319,-1.831,-1.8306,-1.8293,-1.8285,-1.8278,-1.8261,-1.8261,-1.8244,-1.8243,-1.8234,-1.8231,-1.8224,-1.8224,-1.8224,-1.8207,-1.8235,-1.8276,-1.828,-1.8223,-1.8222,-1.8222,0,-1.8373,-1.8364,-1.8367,-1.8362,-1.8342,-1.8343,-1.8335,-1.8321,-1.8317,-1.8309,-1.8306,-1.8297,-1.8293,-1.8286,-1.8268,-1.8257,-1.8269,-1.8251,-1.8262,-1.8263,-1.8267,-1.8267,-1.831,-1.8263,-1.8263,-1.8262,-1.8262,0,-1.8405,-1.841,-1.8383,-1.8385,-1.839,-1.8368,-1.8373,-1.8362,-1.8351,-1.835,-1.8328,-1.8328,-1.8303,-1.8299,-1.8285,-1.8287,-1.8284,-1.8277,-1.8274,-1.828,-1.8281,-1.8279,-1.8277,-1.8263,-1.8263,-1.8263,-1.8263,0,-1.8446,-1.8428,-1.843,-1.8411,-1.8406,-1.841,-1.8393,-1.8394,-1.838,-1.838,-1.8378,-1.8357,-1.8352,-1.8332,-1.8322,-1.8312,-1.8319,-1.8311,-1.8324,-1.8322,-1.8335,-1.8335,-1.8379,-1.8384,-1.8332,-1.8333,-1.8333,0,-1.8468,-1.8472,-1.8452,-1.8451,-1.8443,-1.844,-1.8436,-1.8415,-1.8411,-1.8397,-1.8399,-1.8392,-1.8386,-1.8379,-1.8362,-1.8354,-1.8347,-1.8362,-1.8345,-1.8352,-1.8348,-1.8349,-1.835,-1.8367,-1.8368,-1.8368,-1.8368,0,-1.851,-1.85,-1.8496,-1.8488,-1.8484,-1.8476,-1.8468,-1.8467,-1.8443,-1.844,-1.8435,-1.843,-1.842,-1.8413,-1.8403,-1.8393,-1.8377,-1.8374,-1.8376,-1.8384,-1.8392,-1.8389,-1.8336,-1.8373,-1.8373,-1.8372,-1.8372,-1.8372,-1.8543,-1.8545,-1.8532,-1.8527,-1.8519,-1.8511,-1.8511,-1.8497,-1.8493,-1.8484,-1.8471,-1.8467,-1.8454,-1.8438,-1.843,-1.8426,-1.8417,-1.8421,-1.8422,-1.8423,-1.8427,-1.8391,-1.8424,-1.8424,-1.8424,-1.8423,-1.8423,0,-1.8584,-1.8575,-1.857,-1.8559,-1.8556,-1.854,-1.853,-1.8528,-1.8525,-1.8514,-1.8508,-1.8502,-1.8496,-1.8479,-1.847,-1.8471,-1.8464,-1.847,-1.847,-1.8469,-1.8435,-1.8434,-1.8476,-1.8476,-1.8476,-1.8476,-1.8476,-1.8476,-1.8606,-1.8609,-1.8598,-1.8597,-1.8587,-1.8584,-1.8579,-1.8572,-1.8563,-1.8558,-1.8552,-1.8541,-1.8527,-1.8518,-1.8511,-1.8506,-1.8505,-1.8514,-1.8507,-1.8476,-1.8471,-1.8466,-1.8466,-1.8513,-1.8514,-1.8541,-1.8541,-1.8542]},{"header":{"parameterUnit":"m.s-1","parameterCategory":1,"la1":30.2991,"la2":30.254,"lo1":-89.0895,"lo2":-89.0444,"dy":0.0017,"dx":0.0017,"nx":28,"ny":28,"refTime":"2025-02-10T09:00:00:Z","depth":0,"parameterNumber":3,"parameterNumberName":"V-component_of_WINDS"},"data":[0,0,0,0,0,0,0,0,0,0,0,0,0,0,0,0,0,0,0,0,0,0,0,0,0,0,0,0,0,0,0,0,0,0,0,0,0,0,0,0,0,0,0,0,0,0,0,0,0,0,0,0,0,0,0,0,0,0,-3.8601,-3.86,0,-3.8493,-3.8492,-3.8491,-3.8457,-3.8457,-3.8458,-3.8458,-3.8334,-3.833,-3.8326,0,0,0,0,0,0,0,0,0,0,0,0,0,-3.8763,-3.876,-3.8601,-3.86,-3.8598,-3.8493,-3.8492,-3.849,-3.8457,-3.8457,-3.8458,-3.8459,-3.8335,-3.8331,-3.8326,0,0,0,0,0,0,0,0,0,0,0,0,0,-3.8677,-3.8759,-3.8601,-3.8569,-3.8565,-3.8494,-3.8492,-3.849,-3.8457,-3.8457,-3.8458,-3.8459,-3.8337,-3.8331,-3.8325,-3.8273,0,0,-3.8308,-3.8305,0,0,0,0,0,0,0,0,-3.8682,-3.8671,-3.8575,-3.8571,-3.8567,-3.849,-3.8503,-3.8417,-3.8456,-3.8497,-3.8458,-3.8459,-3.8384,-3.8374,-3.8352,-3.8268,-3.8262,-3.8307,-3.8304,-3.8301,-3.83,0,0,0,0,0,0,0,-3.8688,-3.8675,-3.8558,-3.8574,-3.8569,-3.8555,-3.8544,-3.8487,-3.8437,-3.8494,-3.8491,-3.848,-3.8382,-3.8358,-3.8349,-3.826,-3.8307,-3.8302,-3.8299,-3.8297,-3.8122,-3.8121,0,0,0,0,0,0,-3.8701,-3.8681,-3.8561,-3.8555,-3.8628,-3.8552,-3.8539,-3.8513,-3.8438,-3.8427,-3.8479,-3.8478,-3.8367,-3.8356,-3.8344,-3.8275,-3.8301,-3.8296,-3.8293,-3.8123,-3.8122,-3.8121,0,0,0,0,0,0,-3.8705,-3.8691,-3.8566,-3.8617,-3.86,-3.8548,-3.8519,-3.8511,-3.8487,-3.8427,-3.8416,-3.8465,-3.8367,-3.8352,-3.8291,-3.8271,-3.8293,-3.8288,-3.8125,-3.8123,-3.8121,-3.8139,0,0,0,0,0,0,-3.871,-3.8693,-3.8676,-3.8617,-3.8598,-3.8519,-3.8518,-3.8508,-3.8479,-3.8477,-3.841,-3.84,-3.8367,-3.83,-3.8285,-3.8263,-3.8284,-3.8126,-3.8124,-3.8122,-3.814,-3.8138,-3.8137,0,0,0,0,0,-3.8716,-3.8683,-3.8676,-3.8661,-3.8577,-3.8518,-3.8507,-3.8473,-3.8477,-3.8457,-3.8418,-3.8402,-3.8276,-3.8294,-3.8277,-3.8253,-3.8127,-3.8125,-3.8122,-3.8141,-3.8139,-3.8137,0,0,0,0,0,0,-3.8737,-3.8675,-3.8666,-3.8615,-3.8573,-3.8513,-3.8487,-3.8473,-3.8425,-3.8425,-3.8381,-3.8366,-3.8307,-3.8274,-3.8295,-3.8196,-3.82,-3.8194,-3.822,-3.8217,-3.8216,-3.8224,-3.8279,0,0,0,0,0,-3.8737,-3.87,-3.8645,-3.8605,-3.8585,-3.854,-3.8513,-3.8491,-3.8444,-3.8425,-3.8381,-3.8331,-3.828,-3.8247,-3.8197,-3.8135,-3.8117,-3.811,-3.8108,-3.8107,-3.8101,-3.8061,-3.8056,-3.8112,-3.8112,-3.8112,0,0,-3.8734,-3.8696,-3.8674,-3.8608,-3.8573,-3.853,-3.8525,-3.848,-3.8446,-3.8416,-3.8357,-3.8322,-3.8263,-3.8201,-3.8171,-3.8171,-3.8082,-3.8103,-3.8103,-3.8098,-3.8058,-3.8052,-3.8048,-3.811,-3.811,-3.8111,0,0,-3.8707,-3.8676,-3.8638,-3.8603,-3.8551,-3.8521,-3.8512,-3.8454,-3.8432,-3.8372,-3.8347,-3.8303,-3.8217,-3.8175,-3.8143,-3.8097,-3.8078,-3.8081,-3.8071,-3.8032,-3.8028,-3.8024,-3.8003,-3.7997,-3.8076,-3.8076,-3.8076,0,-3.8709,-3.8649,-3.8619,-3.8576,-3.8545,-3.852,-3.8477,-3.8443,-3.8375,-3.8352,-3.8355,-3.8244,-3.8203,-3.8128,-3.8117,-3.8093,-3.8076,-3.8088,-3.8032,-3.8027,-3.8023,-3.8002,-3.7995,-3.8077,-3.8077,-3.8077,-3.8077,0,-3.8652,-3.8609,-3.8584,-3.8523,-3.849,-3.8447,-3.8405,-3.8374,-3.8354,-3.8322,-3.8258,-3.8208,-3.8145,-3.8126,-3.8105,-3.8046,-3.8048,-3.8042,-3.8044,-3.8019,-3.7998,-3.7991,-3.8078,-3.8077,-3.8077,-3.8077,0,0,-3.8636,-3.8559,-3.855,-3.852,-3.846,-3.8424,-3.8377,-3.832,-3.8292,-3.8245,-3.8201,-3.8128,-3.8121,-3.8084,-3.8058,-3.8024,-3.7986,-3.8021,-3.8019,-3.8013,-3.7912,-3.7915,-3.7907,-3.7974,-3.7972,-3.7971,-3.7916,0,-3.8599,-3.8521,-3.8491,-3.8424,-3.8381,-3.8355,-3.8313,-3.8269,-3.8237,-3.8191,-3.8153,-3.8101,-3.8099,-3.8075,-3.8041,-3.7998,-3.7964,-3.8002,-3.7926,-3.7924,-3.794,-3.7897,-3.7901,-3.7852,-3.7908,-3.7907,-3.7906,0,-3.8546,-3.8502,-3.8433,-3.8375,-3.8355,-3.832,-3.8263,-3.8222,-3.8168,-3.8146,-3.8104,-3.8079,-3.8023,-3.8031,-3.7949,-3.7975,-3.7942,-3.7915,-3.7912,-3.7902,-3.7912,-3.7882,-3.7836,-3.7827,-3.7894,-3.7895,-3.7896,0,-3.8538,-3.8461,-3.8408,-3.8384,-3.8316,-3.8291,-3.826,-3.8208,-3.8174,-3.8122,-3.8099,-3.804,-3.8006,-3.7958,-3.7915,-3.7926,-3.7835,-3.7841,-3.781,-3.7811,-3.7791,-3.7792,-3.7735,-3.7775,-3.7775,-3.7775,-3.7775,0,-3.8498,-3.8455,-3.8404,-3.8371,-3.832,-3.8284,-3.8233,-3.8199,-3.8152,-3.8108,-3.808,-3.8038,-3.7986,-3.7935,-3.79,-3.7835,-3.782,-3.7797,-3.7788,-3.7798,-3.78,-3.7774,-3.7774,-3.7773,-3.7773,-3.7774,-3.7774,0,-3.848,-3.8444,-3.8385,-3.8326,-3.8309,-3.8274,-3.822,-3.8184,-3.815,-3.8094,-3.8079,-3.8024,-3.7962,-3.7916,-3.7834,-3.7811,-3.774,-3.7732,-3.7759,-3.7754,-3.7725,-3.7727,-3.7646,-3.7631,-3.7684,-3.7684,-3.7684,0,-3.8457,-3.8423,-3.8361,-3.8332,-3.8303,-3.8256,-3.8222,-3.8182,-3.8147,-3.8081,-3.8051,-3.7989,-3.7937,-3.7838,-3.7787,-3.7723,-3.7711,-3.7687,-3.7701,-3.7711,-3.7706,-3.7707,-3.7701,-3.7684,-3.7684,-3.7684,-3.7684,0,-3.8417,-3.8401,-3.8356,-3.8303,-3.8264,-3.822,-3.8174,-3.815,-3.8101,-3.8062,-3.8001,-3.7961,-3.7879,-3.7814,-3.7745,-3.7707,-3.7684,-3.768,-3.7669,-3.7677,-3.7693,-3.768,-3.7751,-3.7681,-3.7682,-3.7682,-3.7682,-3.7682,-3.8393,-3.8361,-3.8312,-3.8261,-3.8223,-3.8181,-3.8143,-3.8105,-3.8056,-3.7989,-3.7967,-3.7903,-3.7843,-3.7749,-3.771,-3.7654,-3.7653,-3.7638,-3.7633,-3.7629,-3.7628,-3.7705,-3.7641,-3.7641,-3.7641,-3.7641,-3.7641,0,-3.8349,-3.8316,-3.827,-3.8209,-3.8167,-3.8156,-3.8103,-3.8067,-3.8013,-3.7962,-3.7912,-3.7838,-3.7775,-3.7719,-3.7651,-3.7617,-3.7604,-3.76,-3.76,-3.759,-3.7635,-3.765,-3.7611,-3.7611,-3.7611,-3.7611,-3.7611,-3.7611,-3.8322,-3.8266,-3.8243,-3.8165,-3.813,-3.8071,-3.8041,-3.7999,-3.7959,-3.788,-3.7829,-3.7794,-3.7739,-3.7667,-3.7605,-3.759,-3.7564,-3.7561,-3.7542,-3.7584,-3.7588,-3.7591,-3.7605,-3.7557,-3.7557,-3.7502,-3.7501,-3.7501]}]]